RH
11 59 74 70 58 48 36 23 20 44 27 55 97 97 97 98 97 97 100 100 100 100 91 95 84 83 80 94 100 100 100 100 94 75 71 69 61 56 79 79 94 75 69 58
48 75 77 75 70 66 65 52 33 79 73 71 81 96 96 96 92 91 92 96 97 96 96 94 96 90 95 93 84 94 96 98 95 91 91 92 98 98 88 72 61 65 77 63
82 76 71 66 56 57 55 61 57 54 88 72 73 67 66 76 78 94 94 85 81 82 90 95 93 92 99 98 91 86 81 85 94 93 71 73 81 84 93 97 98 80 73 63
56 69 66 68 70 74 65 67 74 81 64 57 60 75 67 92 84 75 69 76 57 46 48 52 72 93 84 96 95 96 92 96 92 89 96 95 82 75 72 81 78 91 77 75
45 37 28 30 51 68 74 78 79 70 68 75 78 72 80 92 98 87 58 57 48 62 64 77 79 75 53 59 81 85 94 96 94 75 79 88 97 98 93 93 96 100 100 96
47 11 14 23 36 73 80 95 95 94 74 71 82 84 90 90 97 85 78 63 43 41 54 55 50 53 35 34 36 28 40 89 94 86 75 78 96 97 96 97 98 96 97 96
11 20 24 48 48 51 56 78 95 99 83 73 70 88 99 90 96 96 96 70 40 38 24 29 33 35 30 38 38 45 67 83 81 93 76 96 94 97 95 95 96 98 97 96
16 13 15 27 58 71 65 74 88 99 98 80 54 77 98 91 98 96 90 57 31 21 20 37 36 51 63 52 76 80 75 98 95 81 85 84 96 97 96 98 99 100 98 100
15 15 35 18 64 74 81 86 84 88 89 69 93 86 96 96 93 81 69 28 25 21 43 61 93 81 74 78 52 78 62 94 100 96 93 84 100 96 96 97 96 95 96 95
16 18 19 28 60 75 86 82 82 91 99 95 97 98 98 92 96 91 48 33 25 34 42 88 99 96 96 96 89 87 90 98 98 95 95 97 94 96 95 97 97 95 94 96
14 14 17 18 40 64 79 87 86 84 87 95 94 98 99 99 97 89 54 28 38 39 46 76 80 88 90 96 98 97 80 95 97 97 97 97 93 93 88 98 98 91 93 89
11 13 17 17 17 47 80 79 81 87 92 97 91 93 96 95 63 56 39 43 54 68 73 94 98 87 98 88 97 94 83 86 92 97 97 99 99 99 98 98 92 87 81 76
11 14 18 19 54 70 67 61 83 96 77 86 86 80 87 76 61 60 70 85 90 99 99 87 99 91 97 98 95 92 89 89 98 96 100 99 100 100 99 92 93 97 93 83
13 17 19 27 32 52 59 70 71 62 52 51 82 80 68 92 96 92 75 76 91 88 91 90 99 100 96 99 93 97 82 88 96 100 100 94 100 100 98 98 95 96 98 98
14 19 23 27 29 46 43 50 66 73 60 57 61 64 100 93 96 91 87 84 90 86 90 100 100 99 99 97 100 96 88 88 97 99 96 92 98 95 92 93 90 89 95 99
14 18 23 29 34 45 50 51 54 54 65 64 66 88 97 98 76 92 92 96 94 92 100 100 99 98 100 100 100 98 96 95 100 100 100 97 95 92 94 93 93 93 92 88
14 18 23 27 30 35 48 61 63 67 83 80 76 80 81 70 83 82 90 98 99 99 100 100 100 100 100 100 100 100 100 100 100 100 100 100 99 100 100 100 96 93 91 88
14 18 22 27 29 35 37 43 67 77 79 82 81 76 66 79 82 89 96 99 92 88 98 100 100 100 100 100 100 100 100 100 100 100 100 98 100 99 99 99 100 98 100 100
15 18 22 25 31 34 39 42 56 53 75 90 87 78 68 76 96 100 100 96 96 96 92 87 94 95 96 100 100 100 100 100 100 100 100 100 100 100 99 99 100 100 100 100
17 18 24 26 31 36 35 37 44 63 72 86 84 55 83 82 92 100 100 100 100 100 99 95 86 100 100 100 100 100 100 100 100 100 100 100 100 100 100 100 98 97 97 97
22 20 25 30 36 44 38 43 41 46 60 80 56 55 78 96 98 100 100 100 100 100 100 100 97 100 100 100 100 100 100 100 100 100 100 100 100 100 100 100 99 98 98 98
29 25 28 33 41 38 41 47 52 52 54 56 65 63 83 99 100 100 100 100 100 100 100 100 100 100 100 100 100 100 100 100 100 100 100 100 100 100 100 100 99 98 99 99
34 29 36 36 41 51 52 63 67 66 63 64 67 78 97 100 100 100 100 100 100 100 100 100 100 100 100 100 100 100 100 100 100 100 100 99 99 100 100 100 98 93 94 94
41 35 38 40 48 52 60 80 87 76 64 64 70 94 100 100 100 100 100 100 100 100 99 100 100 100 100 100 100 100 100 100 90 78 85 92 97 100 100 100 100 98 96 92
51 47 46 55 60 72 94 98 99 94 72 65 82 100 100 99 98 100 100 100 99 100 100 100 100 99 99 100 100 100 95 74 64 62 61 59 58 61 70 82 92 98 98 95
78 54 60 74 96 99 100 100 100 100 95 73 87 100 100 91 90 99 100 100 100 100 100 100 100 100 99 100 97 89 80 75 72 69 65 62 59 59 61 64 65 70 84 94
58 77 99 100 100 100 100 99 99 98 89 86 91 92 94 99 100 100 100 100 100 100 100 100 100 100 100 100 97 93 84 79 77 74 71 65 60 58 55 56 61 64 68 73
Wind_Speed
32 26 26 28 30 30 28 27 18 15 13 15 20 9 6 9 14 21 21 24 19 21 24 23 28 24 22 13 11 18 30 17 28 36 22 30 34 37 38 14 7 13 5 4
23 24 26 27 28 29 29 26 19 10 11 5 11 15 17 15 16 15 14 11 10 13 12 11 18 26 26 28 28 12 10 12 22 15 27 34 33 40 34 39 27 22 9 5
24 25 26 27 27 28 25 24 19 13 4 13 13 18 16 17 16 9 10 14 16 18 20 17 12 21 20 20 27 26 26 29 24 12 7 20 35 38 38 37 25 29 31 16
22 24 26 26 25 24 22 20 15 15 15 14 13 15 13 11 10 7 12 9 14 16 15 18 14 19 24 18 20 20 18 24 29 30 27 27 22 27 39 41 44 27 27 32
26 26 26 26 27 26 22 19 18 16 18 15 13 13 13 11 6 9 8 10 10 9 12 11 17 19 20 28 27 24 18 10 16 37 28 23 40 27 25 30 34 37 34 24
27 28 26 24 23 25 24 19 19 19 19 17 15 14 13 16 13 6 8 13 14 16 13 17 23 24 24 24 25 23 25 15 12 9 25 22 15 20 29 27 23 25 19 26
30 29 27 26 22 23 23 21 19 21 23 18 17 18 14 14 11 11 14 15 14 16 22 25 22 21 21 19 20 25 26 15 10 8 16 4 6 13 17 20 21 21 20 26
30 29 27 25 23 22 21 19 19 20 24 21 21 17 17 14 15 12 13 14 15 18 25 24 18 12 6 10 8 8 22 19 10 7 8 7 6 1 3 11 7 11 18 20
32 29 27 24 23 21 18 16 16 16 19 19 19 16 13 7 11 13 8 10 11 16 16 13 4 4 7 5 8 9 6 22 15 9 3 2 2 2 3 5 8 5 5 5
33 29 25 22 22 19 17 15 15 14 15 16 21 18 11 10 11 11 11 13 14 13 12 8 5 5 6 5 8 14 8 9 14 19 8 3 11 8 5 6 2 12 13 15
33 29 25 22 19 20 16 16 14 14 16 15 10 9 10 11 11 10 11 12 10 10 6 6 5 6 6 5 7 5 10 5 7 4 2 1 13 6 2 5 8 12 14 18
32 28 24 21 18 15 14 15 14 12 11 8 7 7 7 3 5 9 12 11 11 7 6 7 7 8 4 4 1 5 4 4 2 3 4 3 9 10 10 11 11 11 12 14
29 26 22 21 16 14 14 13 10 8 7 6 6 6 4 7 10 11 9 7 7 7 10 12 4 5 6 3 2 2 2 2 1 1 1 4 6 7 9 11 12 11 12 14
26 23 21 19 16 13 12 9 8 7 11 8 6 8 11 10 6 8 10 10 10 10 9 10 10 10 7 6 4 4 2 2 3 5 6 8 8 10 12 12 10 9 11 11
24 21 19 17 16 13 13 11 10 8 7 8 9 9 6 8 8 9 11 11 11 11 9 9 10 10 7 7 6 6 4 4 5 5 4 3 6 11 12 12 12 12 11 9
22 20 18 16 16 14 13 11 9 10 9 8 6 4 6 7 11 9 10 10 9 9 8 10 10 10 9 6 6 5 4 4 5 4 4 4 4 5 8 9 10 12 12 12
20 19 18 15 15 14 12 11 11 10 7 5 5 5 5 12 11 12 8 6 10 6 4 5 6 7 7 6 3 4 4 5 6 8 8 8 10 11 13 12 11 12 12 12
20 17 18 15 14 13 12 12 10 8 8 6 3 4 10 7 10 7 5 8 9 6 4 2 1 1 3 1 1 1 2 4 5 7 9 10 11 11 12 13 13 13 13 13
20 17 16 14 12 14 13 12 9 10 8 5 4 8 6 8 5 5 4 5 4 4 5 5 3 3 3 3 1 2 3 4 6 7 8 10 11 11 11 11 12 12 13 13
20 17 16 13 12 14 14 10 8 6 5 4 4 12 10 8 5 2 2 3 3 2 4 4 4 8 6 4 3 3 4 5 6 7 9 9 11 11 11 11 11 12 12 12
19 17 15 16 15 14 7 4 6 5 4 3 14 15 9 6 3 2 1 2 2 1 1 2 3 4 4 4 5 5 6 7 8 8 9 9 9 10 10 10 10 10 11 11
18 17 16 15 7 3 2 4 5 5 4 13 15 11 7 5 3 2 2 3 2 1 1 0 3 2 4 5 6 6 7 8 8 9 9 10 10 10 10 10 10 10 10 10
17 14 6 4 2 2 2 6 7 10 14 16 13 8 5 2 2 2 2 2 1 2 1 1 3 3 6 7 8 8 8 9 9 9 10 10 10 9 9 10 10 9 9 10
12 7 5 3 1 2 8 12 13 13 14 14 12 6 2 3 2 2 1 1 2 1 1 1 4 6 8 8 8 8 8 9 9 9 9 9 10 9 9 9 8 8 9 9
5 5 2 1 5 8 12 13 13 14 13 11 8 4 2 2 2 2 1 1 1 2 1 5 8 9 9 8 8 7 7 8 8 8 9 9 9 9 9 9 9 9 9 8
2 3 2 5 9 12 12 12 13 13 11 9 5 1 1 1 1 2 1 2 2 2 6 8 8 8 8 7 6 6 6 6 7 7 8 8 8 9 9 8 8 8 8 9
1 2 6 8 8 10 11 12 12 11 8 5 2 1 1 1 2 3 3 2 4 7 8 9 9 9 8 7 7 7 7 7 7 7 7 8 8 8 8 9 8 8 8 8
Wind_Direction
320 326 328 329 332 334 331 340 344 305 279 224 223 250 244 257 266 244 254 265 271 271 264 266 266 264 252 239 248 232 227 238 234 234 233 230 238 230 211 197 190 222 238 264
329 329 329 332 334 336 342 347 357 319 310 270 262 287 308 322 328 327 303 282 293 287 289 263 250 253 246 243 257 255 231 229 236 237 232 229 225 222 226 227 243 235 195 203
342 335 333 333 332 330 336 342 349 0 39 353 345 328 313 321 322 325 329 319 316 310 298 289 284 266 245 238 237 243 247 255 262 259 239 229 226 232 233 228 228 236 234 230
339 335 333 334 333 332 335 338 337 338 320 329 325 325 323 314 326 318 319 310 311 322 322 318 293 288 277 279 264 249 245 248 253 256 264 252 234 235 235 234 238 228 247 236
336 333 332 329 327 326 329 329 324 317 320 323 309 298 308 311 284 309 304 316 312 311 309 308 309 306 299 289 281 293 281 270 258 256 272 277 245 240 222 236 231 243 239 233
337 334 332 330 329 328 326 329 316 306 309 315 313 301 296 293 313 308 281 305 313 316 317 305 301 297 292 281 280 281 283 273 285 273 251 268 265 240 245 249 237 235 238 234
334 333 331 330 326 315 316 319 312 302 301 302 311 298 294 291 286 288 293 302 302 314 315 313 308 297 283 273 267 257 252 243 255 275 284 242 227 236 243 230 228 234 219 226
335 331 328 325 326 323 319 315 309 300 297 302 302 303 280 281 268 272 290 287 309 316 316 321 325 334 336 328 7 307 258 236 234 219 212 233 223 155 171 206 199 218 229 239
340 336 331 327 325 325 325 321 312 304 302 314 311 294 296 284 282 285 274 298 310 317 324 334 295 294 307 316 1 350 263 224 215 198 166 238 290 223 267 197 205 329 331 289
340 336 331 325 323 324 317 316 313 304 306 306 322 268 276 279 277 288 306 320 330 323 331 342 300 278 3 17 2 5 26 192 227 247 243 207 349 338 306 191 272 305 315 316
342 339 336 331 321 317 314 317 311 305 303 310 298 308 260 265 256 292 304 319 310 321 337 321 330 326 354 5 22 17 27 40 24 27 42 241 347 337 0 353 326 313 315 311
345 343 340 338 329 321 318 319 319 321 317 316 323 305 314 18 314 307 309 308 299 290 311 306 299 306 302 10 313 38 3 40 29 46 127 56 17 15 4 337 326 316 307 306
347 346 346 345 341 325 323 323 343 335 322 324 312 312 325 340 320 312 319 314 307 295 289 310 273 285 282 273 217 138 13 5 191 105 226 298 298 333 332 328 323 318 310 304
349 348 349 351 351 343 337 333 322 313 309 309 306 318 327 327 323 318 314 302 300 298 292 288 276 247 258 235 198 218 251 187 218 228 261 289 289 283 307 310 307 305 313 316
348 349 349 352 354 348 341 332 325 320 318 312 303 310 323 326 322 313 307 303 305 301 287 251 243 211 219 254 220 216 213 214 200 213 248 277 269 267 274 292 297 303 298 308
345 345 345 347 348 348 344 339 331 322 322 319 309 298 299 309 318 323 318 310 317 307 269 249 238 244 228 211 222 240 247 235 232 244 267 287 310 308 304 310 300 294 297 302
340 339 339 338 338 339 336 330 331 325 315 320 301 302 309 315 313 326 324 330 336 338 282 240 217 211 216 243 238 258 268 291 286 271 284 309 316 303 297 305 307 304 306 308
332 333 332 327 329 329 329 330 328 325 324 320 296 303 319 319 323 336 314 329 341 344 17 50 171 174 199 138 185 275 305 302 301 298 302 304 303 307 309 306 309 308 307 306
328 325 326 317 319 327 325 327 317 316 309 292 291 330 327 332 352 33 341 340 342 10 32 32 70 88 79 88 64 333 314 304 297 299 299 298 301 304 307 308 308 309 306 306
327 321 319 317 312 316 313 308 316 305 305 307 327 331 319 326 333 221 322 323 346 6 26 30 71 83 77 52 20 346 326 312 305 301 302 302 304 302 303 304 305 307 307 308
326 322 316 309 305 306 300 295 313 303 299 277 330 328 324 324 321 177 329 301 312 289 45 21 104 88 44 11 355 342 331 325 321 317 314 315 314 311 311 311 309 309 310 310
323 318 311 302 299 288 290 315 324 321 307 318 322 315 305 301 290 235 247 230 254 165 243 282 127 73 5 349 340 333 325 323 321 319 317 316 317 319 320 318 318 317 317 317
319 325 300 289 272 277 346 336 324 324 322 328 330 309 299 263 255 243 256 242 174 183 213 110 109 354 337 332 328 325 321 321 322 321 319 319 321 323 322 320 319 318 319 319
324 314 272 266 276 349 338 332 329 328 327 328 328 316 262 237 243 225 223 178 189 140 111 101 348 331 328 326 322 320 318 319 322 323 323 321 322 324 325 324 322 322 320 318
310 280 265 269 331 326 324 322 326 330 331 327 325 309 272 230 204 196 194 183 121 99 135 326 322 321 324 323 319 318 321 323 326 328 330 330 327 326 329 329 329 330 329 329
264 249 311 321 316 324 330 329 327 327 328 325 327 300 230 179 174 158 127 138 94 314 310 315 316 315 318 318 320 320 320 322 325 329 334 338 341 341 339 334 332 333 335 336
15 341 317 330 330 333 338 340 337 331 326 321 284 254 171 122 109 86 67 64 320 310 311 308 310 311 307 304 303 303 305 308 314 320 327 334 343 351 353 357 358 353 347 342